Location: Foulognes
(49.1413°N, 0.8183°W)
Time: 07:51:28
(UTC+00:00)

Cosmos 1727 Rocket - Pass Details

Date: 21 October 2019
Orbit: 961 x 996 km, 82.9° (Epoch: 17 November)

Event Time Altitude Azimuth Distance (km) Brightness Sun altitude
Rises 19:00:00 0° 193° (SSW) 3,638 7.1 -19.9°
Reaches altitude 10° 19:02:30 10° 195° (SSW) 2,693 6.4 -20.3°
Maximum altitude 19:08:39 74° 280° (W) 1,005 4.2 -21.3°
Drops below altitude 10° 19:14:51 10° 6° (N) 2,710 6.4 -22.3°
Sets 19:17:23 0° 9° (N) 3,663 7.0 -22.7°
